Location: ??????
(41.3164°N, 22.6615°E)
Time: 00:26:51
(UTC+00:00)

UWE-3 - Visible Passes

Search period start: 30 June 2022 00:00
Search period end: 10 July 2022 00:00
Orbit: 581 x 679 km, 97.7° (Epoch: 29 June)

Date Brightness Start Highest point End Pass type
(mag) Time Alt. Az. Time Alt. Az. Time Alt. Az.
30 Jun ? 01:53:49 10° NNE 01:58:10 82° ESE 02:02:36 10° S visible
01 Jul ? 00:40:09 10° ENE 00:42:00 12° E 00:43:50 10° ESE visible
01 Jul ? 02:14:23 10° N 02:18:39 59° WNW 02:23:02 10° SSW visible
02 Jul ? 00:59:23 10° NE 01:02:42 21° E 01:06:02 10° SE visible
03 Jul ? 01:19:19 10° NNE 01:23:20 34° E 01:27:23 10° SSE visible
04 Jul ? 01:39:34 10° NNE 01:43:54 57° E 01:48:20 10° S visible
05 Jul ? 02:00:01 10° N 02:04:25 85° WNW 02:08:57 10° SSW visible
06 Jul ? 00:45:43 10° NE 00:48:19 15° E 00:50:56 10° SE visible
06 Jul ? 02:20:37 10° N 02:24:53 50° WNW 02:29:16 10° SSW visible
07 Jul ? 01:05:19 10° NE 01:08:59 25° E 01:12:42 10° SSE visible
08 Jul ? 01:25:23 10° NNE 01:29:36 40° E 01:33:53 10° SSE visible
09 Jul ? 01:45:41 10° NNE 01:50:09 69° ESE 01:54:41 10° S visible
